• In Hungary
  • List of Countries
  • For 7 days
  • Water Temperature
  • Satellite Maps
  • Weather Map
  • News
  • Weather Widgets
  • user-avatar
    Login

    Hourly Weather Kandi

    Today, 20 February, Tuesday

    Time Temperature Precipitation Wind Pressure Humidity
    00:00 +32°C° 0 mm 1 mps 734 mmHg 12%
    01:00 +32°C° 0 mm 1 mps 734 mmHg 12%
    02:00 +31°C° 0 mm 1 mps 734 mmHg 12%
    03:00 +30°C° 0 mm 1 mps 734 mmHg 12%
    04:00 +30°C° 0 mm 1 mps 734 mmHg 13%
    05:00 +30°C° 0 mm 1 mps 734 mmHg 14%
    06:00 +29°C° 0 mm 1 mps 734 mmHg 12%
    07:00 +31°C° 0 mm 1 mps 735 mmHg 16%
    08:00 +34°C° 0 mm 2 mps 735 mmHg 20%
    09:00 +37°C° 0 mm 2 mps 736 mmHg 25%
    10:00 +39°C° 0 mm 2 mps 735 mmHg 22%
    11:00 +41°C° 0 mm 2 mps 735 mmHg 19%
    12:00 +42°C° 0 mm 2 mps 735 mmHg 21%
    13:00 +42°C° 0 mm 2 mps 734 mmHg 19%
    14:00 +43°C° 0 mm 1 mps 734 mmHg 18%
    15:00 +43°C° 0 mm 1 mps 733 mmHg 16%
    16:00 +42°C° 0 mm 1 mps 733 mmHg 18%
    17:00 +41°C° 0 mm 1 mps 733 mmHg 19%
    18:00 +39°C° 0 mm 1 mps 733 mmHg 20%
    19:00 +37°C° 0 mm 1 mps 733 mmHg 22%
    20:00 +36°C° 0 mm 1 mps 734 mmHg 24%
    21:00 +35°C° 0 mm 1 mps 734 mmHg 26%
    22:00 +34°C° 0 mm 1 mps 734 mmHg 27%
    23:00 +34°C° 0 mm 1 mps 734 mmHg 28%

    Tomorrow, 21 February, Wednesday

    Time Temperature Precipitation Wind Pressure Humidity
    00:00 +33°C° 0 mm 1 mps 734 mmHg 30%
    01:00 +33°C° 0 mm 1 mps 733 mmHg 31%
    02:00 +32°C° 0 mm 1 mps 733 mmHg 32%
    03:00 +32°C° 0 mm 1 mps 733 mmHg 34%
    04:00 +31°C° 0 mm 1 mps 733 mmHg 36%
    05:00 +31°C° 0 mm 1 mps 733 mmHg 38%
    06:00 +30°C° 0 mm 2 mps 733 mmHg 40%
    07:00 +33°C° 0 mm 3 mps 734 mmHg 40%
    08:00 +34°C° 0 mm 3 mps 735 mmHg 40%
    09:00 +36°C° 0 mm 4 mps 735 mmHg 41%
    10:00 +38°C° 0 mm 4 mps 735 mmHg 34%
    11:00 +40°C° 0 mm 3 mps 734 mmHg 28%
    12:00 +42°C° 0 mm 2 mps 734 mmHg 22%
    13:00 +42°C° 0 mm 2 mps 733 mmHg 21%
    14:00 +42°C° 0 mm 2 mps 732 mmHg 20%
    15:00 +42°C° 0 mm 2 mps 731 mmHg 19%
    16:00 +41°C° 0 mm 2 mps 731 mmHg 21%
    17:00 +40°C° 0 mm 2 mps 731 mmHg 23%
    18:00 +39°C° 0 mm 2 mps 731 mmHg 24%
    19:00 +39°C° 0 mm 2 mps 732 mmHg 27%
    20:00 +38°C° 0 mm 2 mps 733 mmHg 29%
    21:00 +37°C° 0 mm 2 mps 733 mmHg 31%
    22:00 +36°C° 0.2 mm 2 mps 733 mmHg 33%
    23:00 +36°C° 0.2 mm 2 mps 733 mmHg 36%

    Day after tomorrow, 22 February, Thursday

    Time Temperature Precipitation Wind Pressure Humidity
    00:00 +35°C° 0.2 mm 2 mps 733 mmHg 38%
    01:00 +35°C° 0.3 mm 2 mps 733 mmHg 40%
    02:00 +34°C° 0.3 mm 3 mps 732 mmHg 42%
    03:00 +34°C° 0.3 mm 3 mps 732 mmHg 44%
    04:00 +33°C° 0 mm 3 mps 732 mmHg 47%
    05:00 +33°C° 0 mm 4 mps 732 mmHg 51%
    06:00 +32°C° 0 mm 4 mps 733 mmHg 55%
    07:00 +33°C° 0 mm 4 mps 733 mmHg 52%
    08:00 +34°C° 0 mm 5 mps 734 mmHg 49%
    09:00 +35°C° 0 mm 5 mps 735 mmHg 46%
    10:00 +36°C° 0 mm 5 mps 734 mmHg 42%
    11:00 +38°C° 0 mm 4 mps 734 mmHg 37%
    12:00 +40°C° 0 mm 4 mps 733 mmHg 33%
    13:00 +41°C° 0 mm 4 mps 733 mmHg 31%
    14:00 +40°C° 0 mm 3 mps 732 mmHg 30%
    15:00 +40°C° 0 mm 3 mps 731 mmHg 29%
    16:00 +39°C° 0.1 mm 3 mps 731 mmHg 32%
    17:00 +38°C° 0.1 mm 2 mps 732 mmHg 34%
    18:00 +37°C° 0.1 mm 2 mps 732 mmHg 37%
    19:00 +36°C° 1 mm 2 mps 733 mmHg 42%
    20:00 +35°C° 1 mm 2 mps 733 mmHg 47%
    21:00 +34°C° 1 mm 2 mps 734 mmHg 52%
    22:00 +32°C° 0.4 mm 2 mps 734 mmHg 53%
    23:00 +33°C° 0.4 mm 3 mps 734 mmHg 55%

    23 February, Friday

    Time Temperature Precipitation Wind Pressure Humidity
    00:00 +33°C° 0.4 mm 3 mps 733 mmHg 57%
    01:00 +31°C° 0.2 mm 3 mps 733 mmHg 59%
    02:00 +31°C° 0.2 mm 3 mps 733 mmHg 61%
    03:00 +30°C° 0.2 mm 3 mps 733 mmHg 63%
    04:00 +30°C° 0.3 mm 3 mps 733 mmHg 64%
    05:00 +29°C° 0.3 mm 3 mps 733 mmHg 66%
    06:00 +29°C° 0.3 mm 3 mps 733 mmHg 67%
    07:00 +29°C° 0.6 mm 3 mps 734 mmHg 66%
    08:00 +29°C° 0.6 mm 2 mps 735 mmHg 65%
    09:00 +30°C° 0.6 mm 2 mps 735 mmHg 64%
    10:00 +30°C° 0.4 mm 2 mps 735 mmHg 63%
    11:00 +30°C° 0.4 mm 2 mps 735 mmHg 61%
    12:00 +31°C° 0.4 mm 2 mps 734 mmHg 59%
    13:00 +31°C° 0.1 mm 2 mps 734 mmHg 55%
    14:00 +32°C° 0.1 mm 2 mps 733 mmHg 52%
    15:00 +33°C° 0.1 mm 1 mps 732 mmHg 48%
    16:00 +32°C° 0 mm 1 mps 733 mmHg 48%
    17:00 +32°C° 0 mm 1 mps 733 mmHg 48%
    18:00 +32°C° 0 mm 1 mps 733 mmHg 47%
    19:00 +31°C° 0 mm 1 mps 734 mmHg 48%
    20:00 +31°C° 0 mm 1 mps 734 mmHg 49%
    21:00 +31°C° 0 mm 1 mps 734 mmHg 50%
    22:00 +30°C° 0 mm 1 mps 734 mmHg 51%
    23:00 +30°C° 0 mm 1 mps 734 mmHg 52%

    24 February, Saturday

    Time Temperature Precipitation Wind Pressure Humidity
    00:00 +30°C° 0 mm 1 mps 734 mmHg 53%
    01:00 +30°C° 0 mm 1 mps 734 mmHg 55%
    02:00 +29°C° 0 mm 1 mps 733 mmHg 56%
    03:00 +29°C° 0 mm 1 mps 733 mmHg 57%
    04:00 +29°C° 0 mm 1 mps 733 mmHg 58%
    05:00 +29°C° 0 mm 1 mps 734 mmHg 58%
    06:00 +29°C° 0 mm 1 mps 734 mmHg 58%
    07:00 +31°C° 0 mm 1 mps 735 mmHg 52%
    08:00 +33°C° 0 mm 1 mps 735 mmHg 46%
    09:00 +35°C° 0 mm 1 mps 736 mmHg 40%
    10:00 +37°C° 0 mm 1 mps 736 mmHg 35%
    11:00 +40°C° 0 mm 1 mps 736 mmHg 29%
    12:00 +40°C° 0 mm 0 mps 735 mmHg 24%
    13:00 +42°C° 0 mm 1 mps 735 mmHg 24%
    14:00 +41°C° 0 mm 1 mps 734 mmHg 25%
    15:00 +40°C° 0 mm 1 mps 733 mmHg 26%
    16:00 +39°C° 0 mm 1 mps 733 mmHg 28%
    17:00 +37°C° 0 mm 1 mps 734 mmHg 30%
    18:00 +37°C° 0 mm 1 mps 734 mmHg 32%
    19:00 +36°C° 0 mm 1 mps 735 mmHg 34%
    20:00 +35°C° 0 mm 1 mps 735 mmHg 36%
    21:00 +35°C° 0 mm 2 mps 735 mmHg 38%
    22:00 +34°C° 0.1 mm 1 mps 735 mmHg 40%
    23:00 +33°C° 0.1 mm 1 mps 735 mmHg 42%

    25 February, Sunday

    Time Temperature Precipitation Wind Pressure Humidity
    00:00 +33°C° 0.1 mm 1 mps 735 mmHg 43%
    01:00 +32°C° 0 mm 1 mps 735 mmHg 44%
    02:00 +32°C° 0 mm 1 mps 734 mmHg 45%
    03:00 +32°C° 0 mm 1 mps 734 mmHg 46%
    04:00 +31°C° 0.3 mm 1 mps 734 mmHg 48%
    05:00 +31°C° 0.3 mm 1 mps 735 mmHg 50%
    06:00 +31°C° 0.3 mm 1 mps 735 mmHg 51%
    07:00 +32°C° 0.2 mm 1 mps 736 mmHg 48%
    08:00 +33°C° 0.2 mm 1 mps 736 mmHg 44%
    09:00 +34°C° 0.2 mm 1 mps 737 mmHg 41%
    10:00 +36°C° 0 mm 1 mps 736 mmHg 36%
    11:00 +39°C° 0 mm 1 mps 736 mmHg 32%
    12:00 +41°C° 0 mm 1 mps 735 mmHg 28%
    13:00 +41°C° 0 mm 1 mps 735 mmHg 26%
    14:00 +41°C° 0 mm 2 mps 734 mmHg 25%
    15:00 +42°C° 0 mm 2 mps 733 mmHg 23%
    16:00 +41°C° 0 mm 1 mps 733 mmHg 24%
    17:00 +40°C° 0 mm 1 mps 734 mmHg 25%
    18:00 +39°C° 0 mm 1 mps 734 mmHg 26%
    19:00 +39°C° 0 mm 1 mps 734 mmHg 27%
    20:00 +37°C° 0 mm 1 mps 735 mmHg 29%
    21:00 +36°C° 0 mm 1 mps 735 mmHg 30%
    22:00 +36°C° 0 mm 1 mps 735 mmHg 33%
    23:00 +35°C° 0 mm 1 mps 735 mmHg 35%
    Show more